Вернуться в каталог

SL-8 DEB

АктивенUNKNOWN
NORAD 1634·DEBRIS·🇷🇺 Russia

Запущен Mar 15, 1965 с Baikonur Cosmodrome

Loading…

Ближайшие Пролёты (ближайшие 24 часа)

TLE

СвежийSource: Space-Track

Эпоха: Sep 14, 2026, 03:47 UTC

1 01634U 65020ED  26257.15810314 -.00000018  00000-0  13556-3 0  9995
2 01634  56.1551 181.2563 0852725 199.8279 156.7512 12.48579961773599

Отслеживайте SL-8 DEB в реальном времени с AllMySat

Download on the App Store